Location: Les Coudrans
(46.1056°N, 1.1158°W)
Time: 07:29:13
(UTC+00:00)

Cosmos 2333 Rocket - Pass Details

Date: 03 March 2021
Orbit: 837 x 864 km, 70.8° (Epoch: 18 April)

Event Time Altitude Azimuth Distance (km) Brightness Sun altitude
Rises 18:46:54 0° 163° (SSE) 3,385 5.2 -10.0°
Reaches altitude 10° 18:49:52 10° 148° (SSE) 2,460 4.3 -10.5°
Maximum altitude 18:54:01 21° 101° (E) 1,798 3.3 -11.2°
Drops below altitude 10° 18:58:12 10° 53° (NE) 2,486 4.2 -11.9°
Sets 19:01:12 0° 39° (NE) 3,432 5.0 -12.5°
